Overview Statistics Trail Chart Weather Telemetry Raw packets
 

This is the latest recevied weather packets stored in our database for station/object WC0AA-WX. If no packets are shown the sender has not sent any weather packets the latest 10 day(s).

<< 4 5 6 7 8 9 10 >>
Time Temp. Humidity Pressure Rain* Wind** Luminosity Snow
1787976203 22.22° C 83% 1016.8 hPa 0 mm - - -
1787975603 21.67° C 84% 1016.7 hPa 0 mm - - -
1787975003 22.22° C 84% 1016.8 hPa 0 mm - - -
1787974403 22.22° C 83% 1016.9 hPa 0 mm - - -
1787973803 22.22° C 82% 1016.9 hPa 0 mm - - -
1787973203 22.78° C 82% 1016.9 hPa 0 mm - - -
1787972573 22.78° C 82% 1016.9 hPa 0 mm - - -
1787971973 22.78° C 82% 1016.7 hPa 0 mm - - -
1787971807 22.78° C 81% 1016.8 hPa 0 mm - - -
1787971373 22.78° C 81% 1016.8 hPa 0 mm - - -
1787970772 23.33° C 80% 1016.8 hPa 0 mm - - -
1787970173 23.33° C 79% 1016.8 hPa 0 mm - - -
1787969573 23.89° C 79% 1016.7 hPa 0 mm - - -
1787968973 23.89° C 78% 1016.5 hPa 0 mm - - -
1787968372 24.44° C 78% 1016.4 hPa 0 mm - - -
1787967772 25° C 76% 1016.4 hPa 0 mm - - -
1787967172 25.56° C 75% 1016.4 hPa 0 mm - - -
1787966572 25.56° C 73% 1016.4 hPa 0 mm - - -
1787965972 26.11° C 72% 1016.5 hPa 0 mm - - -
1787965372 26.67° C 70% 1016.5 hPa 0 mm - - -
1787964772 26.67° C 69% 1016.6 hPa 0 mm - - -
1787964172 27.22° C 69% 1016.6 hPa 0 mm - - -
1787963572 27.78° C 68% 1016.6 hPa 0 mm - - -
1787962972 28.33° C 66% 1016.7 hPa 0 mm - - -
1787962371 28.33° C 65% 1016.8 hPa 0 mm - - -

* Rain latest hour (hover to see other rain measurements)
** Current wind speed in m/s (hover to see current wind gust speed)